星链-30262 (STARLINK-30262 )

导读

STARLINK-30262是美国太空探索技术公司星链星座的成员,于2023年8月8日发射入轨,属于星链互联网卫星组网任务的一部分。它依托低轨部署提供全球宽带互联网服务,尤其为偏远、基础设施匮乏地区接入网络,星链系统在民用通信之外也承担部分军事通信任务。

Basic Information
目录编号:
57535
目录名称:
STARLINK-30262
国际标识:
2023-115Q
轨道中心:
EARTH
卫星名称:
星链-30262
卫星全名:
星链-30262 (STARLINK-30262 )
卫星状态:
已陨落 最后检测时间 2025-07-23
发射日期:
2023-08-08 UTC
国别 :
美国 (US)
星等 :
--
Orbit Information
数据来源 国际轨道数据
星历时间: 2025-07-23T19:00:54+0800
轨道信息已过期330天
半长轴: 6554.004km
偏心率: 0.0005643
轨道倾角: 42.977°
近地点辐角 281.397°
升交点赤经 343.498°
平近点角 138.446°
近地点: 172.17km
远地点: 179.568km
周期: 88.008分钟
每日圈数: 16.36224
Detailed Information
固有亮度:
5
最大亮度:
0.3
卫星平台:
Starlink v2.0 mini
覆盖范围:
全球
运营商:
太空探索技术公司
运营商所在国:
美国
制造商(研发单位):
太空探索技术公司
制造商所在国:
美国
使用方式:
暂无
Satellite Introduction
星链(Starlink)计划是由太空探索技术公司(SpaceX)提出的一个巨型低轨卫星互联网星座项目,计划在2019年至2024年间在太空搭建由约1.2万颗卫星组成的“星链”网络,其中1584颗将部署在地球上空550千米处的近地轨道,并从2020年开始工作。该卫星仍在工作。